Wind_Speed
24 28 33 37 41 45 48 44 31 31 34 39 35 26 30 30 28 33 25 28 28 30 30 29 28 28 29 29 30 31 31 33 31 31 33 35 35 34
20 23 25 27 30 32 33 32 32 36 34 24 30 26 28 31 27 32 26 27 27 28 28 28 27 28 29 30 30 29 29 30 30 30 32 34 35 35
20 22 24 25 26 28 32 35 35 37 37 34 39 31 25 25 23 28 27 28 25 26 26 27 29 29 29 29 28 26 28 30 31 32 32 32 35 37
18 19 19 21 26 27 29 30 35 36 38 40 42 38 26 27 24 26 27 27 24 22 24 26 27 28 29 28 27 26 27 28 29 31 32 32 33 35
14 15 16 19 22 24 27 29 30 31 34 40 42 33 25 19 22 25 24 27 25 21 22 24 26 26 27 27 25 25 26 27 29 29 30 32 32 33
16 17 17 19 23 25 27 30 35 36 35 34 34 26 20 23 24 21 23 24 25 22 22 22 24 24 25 25 22 25 27 28 28 28 28 29 30 31
16 19 20 22 23 27 30 32 31 32 34 32 32 27 27 18 24 20 21 26 19 22 23 23 24 22 24 23 20 23 25 24 23 25 26 26 27 27
20 23 24 26 27 29 30 30 30 31 34 31 32 23 24 25 13 17 20 25 20 18 22 21 22 23 22 23 20 21 22 22 21 21 22 22 22 21
22 26 27 27 27 29 27 27 24 26 30 31 31 25 22 13 15 17 20 23 24 15 20 20 21 24 21 22 17 19 19 19 17 16 16 17 18 17
22 25 25 26 27 27 27 24 21 19 27 27 21 20 14 13 16 19 21 20 21 20 20 19 21 20 21 19 18 17 16 15 12 13 13 14 15 13
24 24 24 24 26 25 25 23 20 16 20 20 16 13 11 14 18 18 18 19 20 19 19 20 20 20 19 18 16 15 14 13 11 11 13 13 13 13
27 25 25 24 24 23 22 20 16 18 18 14 11 9 14 17 16 17 18 19 16 18 18 19 18 19 18 17 16 15 14 13 11 11 12 12 12 13
28 27 24 23 22 20 19 17 14 18 16 12 10 14 15 16 16 15 17 16 16 16 17 17 17 17 18 16 15 14 13 12 12 11 11 11 11 11
27 24 22 23 21 20 19 18 16 16 13 10 13 15 15 15 15 15 14 15 15 15 15 16 17 16 16 16 15 13 13 12 12 11 11 10 11 10
23 22 22 23 22 21 18 18 18 17 12 14 15 16 15 15 14 13 13 13 15 15 16 16 15 15 15 15 14 13 12 12 12 11 11 10 10 10
20 24 24 24 23 20 19 20 21 15 15 15 16 16 15 14 13 13 13 14 15 16 15 14 14 14 15 14 14 13 12 12 12 12 11 11 10 10
25 26 25 23 21 19 18 19 19 15 16 16 16 15 14 14 13 13 15 15 15 15 14 13 14 14 14 14 14 13 13 12 12 12 12 12 11 11
27 26 23 20 19 18 18 20 19 16 17 17 16 16 16 15 14 14 15 15 15 14 13 13 13 14 14 14 14 13 13 13 13 13 13 13 13 13
23 22 20 19 17 17 17 19 19 18 19 18 18 17 17 16 15 15 15 15 15 14 14 13 14 14 14 15 13 14 15 14 14 14 14 14 15 14
19 18 17 16 16 17 18 19 19 19 19 19 19 18 17 16 15 15 15 15 15 15 15 15 15 14 15 15 14 14 15 15 15 16 16 16 17 17
17 17 17 17 17 18 19 19 20 20 20 20 20 18 17 17 16 16 16 15 15 16 16 16 16 15 16 16 17 16 16 17 17 18 18 18 19 19
18 17 17 17 17 18 19 20 21 21 20 20 19 18 17 18 17 16 16 16 16 17 17 20 15 18 17 17 19 19 18 16 20 19 20 20 21 21
18 18 17 18 18 20 21 20 20 20 19 19 20 19 19 19 18 18 18 17 17 18 19 20 19 19 20 20 20 21 22 20 21 20 21 21 23 22
Wind_Direction
260 265 267 269 268 267 261 257 261 260 267 271 264 258 259 267 280 277 268 271 278 279 280 278 279 280 282 282 282 281 279 278 278 277 273 268 268 270
280 275 274 273 269 266 267 265 253 262 258 268 264 248 257 265 271 267 272 272 274 276 279 279 278 278 277 277 278 278 277 278 278 281 284 282 283 283
283 284 286 284 282 276 269 268 263 263 256 244 256 255 259 266 266 268 271 273 274 275 276 276 276 276 278 276 278 282 287 290 292 289 288 287 285 283
297 297 293 295 286 276 277 278 275 271 256 245 253 255 253 254 255 266 270 270 275 272 275 275 275 276 277 280 285 286 287 290 295 296 293 288 283 280
306 300 294 291 288 284 275 266 268 272 274 260 257 260 253 251 255 259 269 276 279 274 272 275 277 277 279 283 285 288 291 294 297 298 296 293 289 285
310 308 306 309 303 296 287 278 272 271 268 262 256 251 248 240 252 256 265 268 275 279 276 275 274 276 280 281 291 293 296 299 299 295 292 290 287 283
308 305 303 302 306 300 292 286 278 271 264 257 249 241 244 243 242 256 260 267 273 276 281 279 277 284 285 291 295 290 291 294 294 292 292 291 287 284
301 301 304 303 307 312 307 292 282 269 261 244 244 235 234 245 242 261 268 276 278 276 279 282 289 290 291 293 293 289 293 294 298 299 300 298 294 289
297 302 302 301 305 307 306 299 291 280 261 240 231 233 240 236 249 258 259 273 275 287 279 284 283 288 292 291 292 289 292 296 299 303 303 305 302 298
293 298 299 300 302 303 301 303 299 288 260 237 231 219 226 241 254 258 260 273 279 280 282 283 284 285 290 292 288 288 291 292 300 304 309 305 302 301
287 290 291 293 293 295 296 297 293 271 254 229 218 218 228 248 251 256 267 269 273 279 282 282 282 284 285 287 285 285 286 288 294 298 298 298 298 297
283 282 283 284 285 288 290 291 291 267 240 225 213 227 246 249 253 258 264 269 271 273 275 277 280 282 281 282 281 279 280 285 288 288 289 291 294 296
276 276 275 275 279 285 286 278 270 250 229 223 228 238 244 249 255 258 261 270 272 272 271 276 277 277 279 278 277 276 278 281 282 283 284 287 290 292
274 273 272 273 278 281 279 267 252 243 230 230 241 244 246 249 251 255 260 265 272 276 280 279 277 275 276 276 275 275 277 278 279 279 280 283 286 289
277 279 279 281 283 278 265 254 248 238 234 240 246 249 250 249 251 257 261 270 279 281 277 274 272 273 273 274 275 274 274 275 276 277 279 280 283 287
275 280 282 283 281 273 260 250 243 233 242 248 250 249 250 253 256 259 268 277 277 274 271 271 270 270 270 271 271 271 272 272 273 275 277 279 283 287
273 278 282 282 274 264 253 250 242 237 245 249 253 253 254 255 257 263 274 275 273 272 271 271 269 267 266 266 269 271 271 271 272 274 277 280 283 287
277 279 278 273 266 257 246 244 241 242 250 254 255 254 253 254 255 267 274 274 273 274 274 273 271 269 268 268 269 271 272 274 275 277 279 282 283 285
274 274 266 264 254 243 241 245 246 246 251 252 250 248 248 251 256 267 272 273 275 277 277 275 273 271 270 270 271 272 274 274 275 277 279 282 284 285
271 263 260 254 245 241 241 248 253 256 255 251 246 243 247 250 258 268 271 273 273 273 274 273 271 271 272 274 275 273 274 276 276 278 278 279 281 283
258 253 251 248 246 247 249 254 260 259 254 247 243 242 244 248 256 267 273 272 271 271 272 271 269 271 270 273 275 273 274 277 277 279 281 283 284 284
251 249 249 249 250 253 258 259 260 256 249 243 240 243 242 248 255 264 271 272 268 269 269 269 269 267 270 271 274 276 277 274 280 279 280 280 281 283
251 250 250 252 255 259 260 258 257 252 245 239 240 241 241 246 254 262 270 271 267 266 268 269 271 266 269 271 274 278 281 281 280 274 274 282 281 281
Height
3058 3060 3061 3061 3061 3062 3064 3065 3066 3067 3066 3065 3067 3070 3071 3070 3073 3070 3075 3073 3071 3072 3072 3069 3070 3069 3068 3068 3070 3069 3070 3070 3067 3065 3066 3065 3064 3063
3052 3054 3054 3054 3055 3054 3055 3056 3059 3061 3061 3060 3058 3061 3061 3060 3064 3063 3065 3066 3065 3066 3063 3063 3063 3062 3061 3062 3061 3063 3062 3061 3059 3055 3054 3053 3051 3051
3048 3050 3048 3048 3049 3048 3048 3050 3052 3051 3052 3049 3051 3053 3052 3053 3058 3056 3058 3057 3059 3059 3059 3058 3057 3056 3055 3055 3056 3054 3053 3050 3051 3047 3044 3043 3042 3041
3043 3041 3040 3040 3041 3042 3041 3042 3044 3043 3043 3043 3041 3045 3044 3045 3048 3050 3050 3052 3054 3053 3053 3054 3052 3050 3050 3048 3049 3045 3044 3040 3041 3040 3036 3035 3035 3033
3038 3037 3036 3037 3037 3037 3036 3036 3035 3036 3036 3036 3035 3036 3036 3039 3042 3044 3045 3045 3048 3048 3046 3047 3046 3045 3043 3040 3042 3039 3038 3034 3033 3031 3029 3027 3026 3024
3035 3034 3032 3032 3032 3031 3029 3029 3029 3029 3029 3027 3026 3028 3030 3033 3034 3037 3037 3037 3040 3040 3041 3040 3039 3038 3036 3035 3034 3032 3029 3027 3026 3025 3023 3021 3019 3017
3030 3029 3028 3027 3026 3025 3024 3022 3021 3019 3019 3018 3017 3019 3022 3028 3028 3029 3032 3029 3033 3032 3032 3033 3033 3030 3029 3027 3027 3026 3024 3024 3021 3019 3016 3013 3012 3010
3027 3025 3023 3023 3020 3017 3014 3014 3012 3011 3011 3009 3009 3014 3014 3020 3022 3025 3026 3024 3026 3028 3026 3026 3024 3023 3023 3022 3022 3019 3019 3017 3014 3011 3009 3008 3006 3003
3022 3021 3019 3017 3014 3012 3009 3007 3004 3002 3002 3002 3003 3007 3011 3013 3017 3018 3021 3019 3018 3022 3020 3020 3020 3017 3018 3017 3016 3015 3014 3011 3008 3007 3005 3004 3002 3000
3015 3013 3012 3011 3008 3006 3004 3001 2998 2995 2996 2997 3000 3002 3005 3008 3012 3015 3015 3015 3014 3015 3016 3015 3015 3014 3012 3012 3012 3010 3009 3006 3004 3003 3002 3001 3000 2998
3009 3006 3005 3004 3002 3000 2999 2996 2994 2992 2994 2995 2996 2999 3002 3006 3008 3009 3010 3010 3011 3011 3011 3010 3010 3009 3008 3008 3007 3006 3005 3003 3002 3000 3000 2999 2998 2996
3001 3000 2998 2998 2996 2995 2994 2991 2989 2991 2992 2993 2995 2997 3000 3002 3004 3005 3006 3006 3008 3006 3007 3006 3005 3005 3005 3004 3004 3003 3002 3000 2999 2998 2997 2997 2995 2994
2994 2993 2992 2991 2990 2989 2988 2987 2988 2989 2989 2990 2992 2995 2997 2999 3000 3001 3002 3002 3002 3002 3001 3001 3001 3000 3000 3001 3000 2999 2998 2997 2997 2996 2995 2994 2993 2992
2986 2986 2985 2984 2984 2983 2983 2984 2984 2986 2987 2988 2990 2992 2994 2995 2997 2997 2997 2997 2998 2998 2997 2997 2997 2997 2996 2997 2996 2996 2995 2994 2994 2993 2992 2991 2991 2990
2980 2979 2979 2978 2978 2978 2978 2979 2981 2983 2983 2985 2987 2989 2990 2992 2992 2992 2993 2994 2993 2993 2994 2994 2993 2993 2993 2992 2992 2992 2992 2991 2991 2991 2990 2989 2988 2987
2974 2973 2973 2972 2972 2972 2973 2974 2976 2978 2980 2982 2983 2985 2986 2987 2987 2988 2989 2989 2989 2990 2990 2990 2989 2989 2989 2989 2989 2988 2988 2988 2988 2988 2987 2987 2986 2985
2968 2967 2967 2966 2966 2967 2968 2970 2972 2974 2977 2978 2979 2981 2981 2982 2983 2984 2985 2985 2985 2986 2986 2985 2985 2985 2985 2985 2985 2985 2985 2985 2985 2985 2984 2984 2983 2982
2961 2961 2960 2960 2961 2962 2964 2966 2968 2970 2972 2973 2974 2976 2977 2978 2980 2981 2981 2981 2981 2981 2981 2981 2981 2981 2982 2982 2982 2982 2982 2982 2982 2982 2981 2980 2980 2980
2954 2954 2954 2955 2956 2957 2959 2962 2964 2966 2967 2968 2970 2971 2973 2974 2976 2977 2977 2977 2977 2977 2977 2977 2978 2978 2978 2978 2979 2978 2978 2978 2978 2978 2977 2977 2976 2976
2948 2948 2949 2950 2951 2953 2955 2957 2959 2961 2961 2963 2965 2967 2968 2970 2971 2972 2972 2972 2972 2973 2973 2973 2973 2974 2974 2974 2974 2975 2974 2974 2974 2973 2973 2973 2972 2971
2942 2943 2944 2945 2947 2949 2950 2952 2954 2955 2956 2958 2960 2962 2964 2965 2967 2967 2968 2968 2968 2968 2968 2968 2969 2969 2969 2970 2969 2970 2970 2970 2969 2969 2968 2968 2966 2966
2937 2938 2939 2941 2942 2944 2946 2947 2948 2949 2950 2952 2954 2957 2959 2960 2961 2962 2963 2963 2963 2963 2963 2963 2965 2964 2965 2965 2965 2964 2964 2966 2963 2963 2963 2962 2961 2960
2932 2933 2934 2936 2937 2938 2939 2941 2942 2943 2945 2947 2949 2951 2953 2955 2956 2957 2957 2957 2958 2958 2958 2958 2959 2960 2959 2960 2959 2958 2958 2959 2958 2959 2958 2956 2955 2954